Orbital Elements at Epoch 2459200.5 (2020-Dec-17.0) TDB
Reference: JPL 33 (heliocentric ecliptic J2000)
Element | Value | Uncertainty (1-sigma) | Units |
e | .09696853932888991 | 3.3637e-08 | |
a | 2.252838214224041 | 6.9782e-09 | au |
q | 2.034383783246431 | 7.8016e-08 | au |
i | 4.015597243405771 | 4.0636e-06 | deg |
node | 43.19271486031332 | 5.3264e-05 | deg |
peri | 60.78596592933219 | 5.8195e-05 | deg |
M | 64.10127145637568 | 2.2299e-05 | deg |
tp | 2458980.583620795101 (2020-May-11.08362080) | 7.6473e-05 | TDB |
period | 1235.075291254449 3.38 | 5.7385e-06 1.571e-08 | d yr |
n | .2914802057406177 | 1.3543e-09 | deg/d |
Q | 2.471292645201651 | 7.6549e-09 | au |
|
| | Orbit Determination Parameters
Additional Information
|